VHAGEDORN Weather Reports


time (UTC)temp
C
wind
direction
speed
KPH
gust
KPH
rain 1hr
cm
rain 24hr
cm
rain mn
cm
humidity
%
barometer
mb
20260507230031 17 17 0.0 9.7 0.00 0.00 0.00 51 1010.5
20260507223035 17 111 1.6 8.0 0.00 0.00 0.00 49 1010.6
20260507221515 17 131 1.6 9.7 0.00 0.00 0.00 49 1010.6
20260507220018 18 110 4.8 16.1 0.00 0.00 0.00 47 1010.8
20260507214526 17 115 3.2 6.4 0.00 0.00 0.00 56 1011.0
20260507213018 16 59 1.6 8.0 0.00 0.00 0.00 58 1011.4
20260507211553 15 111 3.2 11.3 0.00 0.00 0.00 67 1011.8
20260507210049 15 175 3.2 14.5 0.00 0.00 0.00 61 1012.1
20260507204553 16 92 3.2 9.7 0.00 0.00 0.00 37 1012.2
20260507203058 17 232 3.2 12.9 0.00 0.00 0.00 33 1011.5
20260507203000 17 136 3.2 12.9 0.00 0.00 0.00 32 1011.5
20260507201606 18 184 0.0 4.8 0.00 0.00 0.00 32 1011.3
20260507200057 17 217 3.2 8.0 0.00 0.00 0.00 31 1011.4
20260507194533 17 325 1.6 4.8 0.00 0.00 0.00 31 1011.9
20260507193029 17 234 1.6 3.2 0.00 0.00 0.00 31 1012.0
20260507191545 17 171 0.0 6.4 0.00 0.00 0.00 32 1012.2
20260507171515 15 312 4.8 12.9 0.00 0.00 0.00 30 1013.4
20260507170013 16 331 8.0 16.1 0.00 0.00 0.00 28 1013.5
20260507164507 15 319 4.8 14.5 0.00 0.00 0.00 30 1013.5
20260507163119 14 273 4.8 16.1 0.00 0.00 0.00 30 1013.8
20260507041514 3 103 0.0 3.2 0.00 0.00 0.00 51 1014.9
20260507040051 3 107 0.0 3.2 0.00 0.00 0.00 48 1015.0
20260507034518 5 102 0.0 1.6 0.00 0.00 0.00 45 1015.1
20260507033044 5 102 1.6 3.2 0.00 0.00 0.00 44 1015.2
20260507031519 6 104 0.0 1.6 0.00 0.00 0.00 41 1015.1
20260507030053 7 104 0.0 3.2 0.00 0.00 0.00 38 1015.1
20260507024514 8 104 1.6 3.2 0.00 0.00 0.00 35 1014.9
20260507023056 9 104 0.0 3.2 0.00 0.00 0.00 33 1014.9
20260507021522 10 109 0.0 3.2 0.00 0.00 0.00 29 1014.9
20260507020056 11 121 0.0 1.6 0.00 0.00 0.00 26 1014.9
20260507014543 11 121 0.0 0.0 0.00 0.00 0.00 25 1014.8
20260507013054 11 98 0.0 4.8 0.00 0.00 0.00 25 1014.9
20260507011536 11 39 0.0 3.2 0.00 0.00 0.00 24 1015.1
20260507010017 12 111 0.0 6.4 0.00 0.00 0.00 22 1015.2
20260507004600 12 107 3.2 6.4 0.00 0.00 0.00 21 1015.3
20260507003039 12 79 1.6 11.3 0.00 0.00 0.00 24 1015.5
20260507001540 13 144 4.8 19.3 0.00 0.00 0.00 22 1015.8
20260507000046 13 128 3.2 9.7 0.00 0.00 0.00 22 1015.8
20260506234541 13 28 3.2 19.3 0.00 0.00 0.00 23 1016.3
20260506233044 13 128 1.6 17.7 0.00 0.00 0.00 22 1016.2
20260506231544 13 89 3.2 9.7 0.00 0.00 0.00 22 1016.2